Location: Fort Worth, Tx
(32.7431°N, 97.3695°W)
Time: 18:45:53
(UTC-05:00)

X-37B - Visible Passes

Search period start: 30 November 2022 00:00
Search period end: 10 December 2022 00:00
Orbit: 277 x 277 km, 45.0° (Epoch: 01 November)

Date Brightness Start Highest point End Pass type
(mag) Time Alt. Az. Time Alt. Az. Time Alt. Az.
03 Dec 2.3 19:58:24 10° SSW 19:59:20 19° SSW 19:59:20 19° SSW visible
04 Dec 1.7 19:58:52 10° SW 20:00:20 32° WSW 20:00:20 32° WSW visible
05 Dec 2.0 19:59:42 10° W 20:01:14 27° WNW 20:01:14 27° WNW visible
06 Dec 2.5 20:00:53 10° WNW 20:02:05 17° NW 20:02:05 17° NW visible
07 Dec 3.0 20:02:27 10° NW 20:02:51 11° NW 20:02:51 11° NW visible
